| time (UTC) | temp F | wind direction | speed MPH | gust MPH | rain 1hr in | rain 24hr in | rain mn in | humidity % | barometer mb |
| 20260906035756 | 74 | 187 | 0.0 | 0.0 | 0.00 | 0.34 | 0.34 | 99 | 1013.3 |
| 20260906035251 | 74 | 183 | 0.0 | 0.0 | 0.00 | 0.34 | 0.34 | 99 | 1013.3 |
| 20260906034751 | 74 | 200 | 1.0 | 1.0 | 0.00 | 0.34 | 0.34 | 99 | 1013.4 |
| 20260906034246 | 74 | 156 | 0.0 | 1.0 | 0.00 | 0.34 | 0.34 | 99 | 1013.6 |
| 20260906033742 | 74 | 182 | 0.0 | 0.0 | 0.00 | 0.34 | 0.34 | 98 | 1013.7 |
| 20260906033242 | 74 | 171 | 0.0 | 0.0 | 0.00 | 0.34 | 0.34 | 98 | 1013.5 |
| 20260906032738 | 74 | 146 | 0.0 | 0.0 | 0.00 | 0.34 | 0.34 | 98 | 1013.5 |
| 20260906032238 | 74 | 175 | 0.0 | 0.0 | 0.00 | 0.34 | 0.34 | 98 | 1013.6 |
| 20260906031733 | 74 | 165 | 0.0 | 0.0 | 0.00 | 0.34 | 0.34 | 98 | 1013.8 |
| 20260906031229 | 74 | 169 | 0.0 | 0.0 | 0.00 | 0.34 | 0.34 | 98 | 1013.7 |
| 20260906030729 | 74 | 176 | 0.0 | 0.0 | 0.00 | 0.34 | 0.34 | 98 | 1013.7 |
| 20260906030224 | 74 | 176 | 0.0 | 0.0 | 0.00 | 0.34 | 0.34 | 98 | 1013.7 |
| 20260906025723 | 75 | 187 | 0.0 | 0.0 | 0.00 | 0.34 | 0.34 | 98 | 1013.7 |
| 20260906025218 | 75 | 191 | 0.0 | 0.0 | 0.00 | 0.34 | 0.34 | 98 | 1013.4 |
| 20260906024717 | 75 | 157 | 0.0 | 0.0 | 0.00 | 0.34 | 0.34 | 98 | 1013.6 |
| 20260906024216 | 75 | 188 | 0.0 | 0.0 | 0.00 | 0.34 | 0.34 | 98 | 1013.6 |
| 20260906023713 | 75 | 178 | 0.0 | 0.0 | 0.00 | 0.34 | 0.34 | 98 | 1013.7 |
| 20260906023213 | 75 | 174 | 0.0 | 0.0 | 0.00 | 0.34 | 0.34 | 98 | 1013.5 |
| 20260906022708 | 75 | 183 | 0.0 | 0.0 | 0.00 | 0.34 | 0.34 | 98 | 1013.7 |
| 20260906022203 | 75 | 183 | 0.0 | 0.0 | 0.00 | 0.34 | 0.34 | 98 | 1013.5 |
| 20260906021659 | 75 | 158 | 1.0 | 1.0 | 0.00 | 0.34 | 0.34 | 98 | 1013.3 |
| 20260906021158 | 75 | 152 | 4.0 | 4.0 | 0.00 | 0.34 | 0.34 | 99 | 1013.4 |
| 20260906020653 | 75 | 177 | 0.0 | 0.0 | 0.00 | 0.34 | 0.34 | 99 | 1013.5 |
| 20260906020148 | 75 | 153 | 3.0 | 4.0 | 0.00 | 0.34 | 0.34 | 99 | 1013.6 |
| 20260906015648 | 75 | 168 | 1.0 | 1.0 | 0.00 | 0.34 | 0.34 | 99 | 1013.4 |
| 20260906015147 | 75 | 195 | 1.0 | 1.0 | 0.00 | 0.34 | 0.34 | 99 | 1013.1 |
| 20260906014646 | 75 | 174 | 0.0 | 0.0 | 0.00 | 0.34 | 0.34 | 99 | 1012.9 |
| 20260906014142 | 75 | 173 | 0.0 | 0.0 | 0.00 | 0.34 | 0.34 | 99 | 1012.8 |
| 20260906013638 | 75 | 185 | 0.0 | 0.0 | 0.00 | 0.34 | 0.34 | 99 | 1012.8 |
| 20260906013134 | 75 | 198 | 1.0 | 1.0 | 0.00 | 0.34 | 0.34 | 99 | 1013.0 |
| 20260906012633 | 75 | 164 | 0.0 | 0.0 | 0.00 | 0.34 | 0.34 | 99 | 1013.1 |
| 20260906012128 | 76 | 188 | 0.0 | 0.0 | 0.00 | 0.34 | 0.34 | 99 | 1012.8 |
| 20260906011624 | 76 | 188 | 0.0 | 0.0 | 0.00 | 0.34 | 0.34 | 99 | 1013.1 |
| 20260906011124 | 76 | 161 | 0.0 | 0.0 | 0.00 | 0.34 | 0.34 | 99 | 1013.1 |
| 20260906010620 | 76 | 190 | 0.0 | 0.0 | 0.00 | 0.34 | 0.34 | 98 | 1013.0 |
| 20260906010116 | 76 | 203 | 1.0 | 1.0 | 0.00 | 0.34 | 0.34 | 98 | 1012.8 |
| 20260906005615 | 76 | 194 | 0.0 | 1.0 | 0.00 | 0.34 | 0.34 | 98 | 1012.8 |
| 20260906005115 | 76 | 180 | 1.0 | 1.0 | 0.00 | 0.34 | 0.34 | 98 | 1012.7 |
| 20260906004614 | 76 | 165 | 0.0 | 0.0 | 0.00 | 0.34 | 0.34 | 97 | 1012.5 |
| 20260906004108 | 76 | 164 | 0.0 | 0.0 | 0.00 | 0.34 | 0.34 | 97 | 1012.5 |
| 20260906003604 | 76 | 180 | 0.0 | 0.0 | 0.00 | 0.34 | 0.34 | 97 | 1012.4 |
| 20260906003101 | 76 | 161 | 0.0 | 0.0 | 0.00 | 0.34 | 0.34 | 97 | 1012.4 |
| 20260906002600 | 76 | 157 | 0.0 | 0.0 | 0.00 | 0.34 | 0.34 | 96 | 1012.4 |
| 20260906002055 | 76 | 155 | 0.0 | 0.0 | 0.00 | 0.34 | 0.34 | 96 | 1012.4 |
| 20260906001551 | 76 | 171 | 0.0 | 0.0 | 0.00 | 0.34 | 0.34 | 95 | 1012.3 |
| 20260906001051 | 77 | 187 | 0.0 | 0.0 | 0.00 | 0.34 | 0.34 | 95 | 1012.2 |
| 20260906000547 | 77 | 187 | 0.0 | 0.0 | 0.00 | 0.34 | 0.34 | 95 | 1012.4 |
| 20260906000042 | 77 | 188 | 0.0 | 0.0 | 0.00 | 0.34 | 0.34 | 94 | 1012.1 |
| 20260905235542 | 77 | 174 | 0.0 | 1.0 | 0.00 | 0.34 | 0.34 | 94 | 1012.3 |
| 20260905235042 | 77 | 165 | 1.0 | 1.0 | 0.00 | 0.34 | 0.34 | 94 | 1012.0 |
| 20260905234537 | 78 | 159 | 0.0 | 1.0 | 0.00 | 0.34 | 0.34 | 94 | 1012.1 |
| 20260905234033 | 78 | 154 | 0.0 | 0.0 | 0.00 | 0.34 | 0.34 | 93 | 1012.2 |
| 20260905233532 | 78 | 164 | 0.0 | 0.0 | 0.00 | 0.34 | 0.34 | 92 | 1012.1 |
| 20260905233032 | 78 | 256 | 0.0 | 0.0 | 0.00 | 0.34 | 0.34 | 91 | 1012.1 |
| 20260905232528 | 78 | 184 | 0.0 | 0.0 | 0.00 | 0.34 | 0.34 | 91 | 1012.1 |
| 20260905232024 | 79 | 184 | 0.0 | 0.0 | 0.00 | 0.34 | 0.34 | 91 | 1011.7 |
| 20260905231519 | 79 | 188 | 0.0 | 0.0 | 0.00 | 0.34 | 0.34 | 91 | 1012.2 |
| 20260905231015 | 79 | 190 | 0.0 | 0.0 | 0.00 | 0.34 | 0.34 | 90 | 1011.8 |
| 20260905230514 | 79 | 203 | 1.0 | 1.0 | 0.00 | 0.34 | 0.34 | 90 | 1012.2 |
| 20260905230012 | 79 | 235 | 3.0 | 3.0 | 0.00 | 0.34 | 0.34 | 91 | 1012.1 |
| 20260905225507 | 79 | 211 | 2.0 | 3.0 | 0.00 | 0.34 | 0.34 | 92 | 1012.3 |
| 20260905225002 | 79 | 202 | 2.0 | 3.0 | 0.00 | 0.34 | 0.34 | 92 | 1012.2 |
| 20260905224457 | 80 | 196 | 1.0 | 1.0 | 0.00 | 0.34 | 0.34 | 92 | 1012.1 |
| 20260905223956 | 80 | 207 | 2.0 | 3.0 | 0.00 | 0.34 | 0.34 | 91 | 1012.3 |
| 20260905223454 | 80 | 199 | 0.0 | 1.0 | 0.00 | 0.34 | 0.34 | 90 | 1012.2 |
| 20260905222950 | 80 | 209 | 1.0 | 1.0 | 0.00 | 0.34 | 0.34 | 89 | 1012.3 |
| 20260905222449 | 80 | 193 | 0.0 | 0.0 | 0.00 | 0.34 | 0.34 | 88 | 1012.1 |
| 20260905221945 | 80 | 189 | 0.0 | 0.0 | 0.00 | 0.34 | 0.34 | 89 | 1012.1 |
| 20260905221441 | 79 | 119 | 2.0 | 3.0 | 0.00 | 0.34 | 0.34 | 90 | 1012.2 |
| 20260905220937 | 79 | 195 | 0.0 | 1.0 | 0.00 | 0.34 | 0.34 | 92 | 1012.1 |
| 20260905220433 | 79 | 195 | 2.0 | 3.0 | 0.00 | 0.34 | 0.34 | 92 | 1012.4 |
| 20260905215932 | 79 | 195 | 0.0 | 0.0 | 0.00 | 0.34 | 0.34 | 93 | 1012.3 |
| 20260905215428 | 79 | 201 | 1.0 | 1.0 | 0.00 | 0.34 | 0.34 | 92 | 1012.6 |
| 20260905214924 | 79 | 163 | 0.0 | 0.0 | 0.00 | 0.34 | 0.34 | 92 | 1012.6 |
| 20260905214420 | 78 | 188 | 0.0 | 0.0 | 0.00 | 0.34 | 0.34 | 92 | 1012.5 |
| 20260905213919 | 79 | 202 | 4.0 | 4.0 | 0.00 | 0.34 | 0.34 | 93 | 1012.7 |
| 20260905213416 | 79 | 187 | 0.0 | 1.0 | 0.00 | 0.34 | 0.34 | 92 | 1012.6 |
| 20260905212911 | 78 | 195 | 0.0 | 1.0 | 0.00 | 0.34 | 0.34 | 93 | 1012.5 |
| 20260905212406 | 79 | 144 | 2.0 | 3.0 | 0.00 | 0.34 | 0.34 | 92 | 1012.8 |
| 20260905211905 | 79 | 185 | 0.0 | 0.0 | 0.00 | 0.34 | 0.34 | 93 | 1012.8 |
| 20260905211401 | 78 | 181 | 0.0 | 1.0 | 0.00 | 0.34 | 0.34 | 93 | 1013.1 |
| 20260905210857 | 78 | 209 | 1.0 | 1.0 | 0.00 | 0.34 | 0.34 | 93 | 1013.2 |
| 20260905210357 | 78 | 208 | 2.0 | 3.0 | 0.00 | 0.34 | 0.34 | 93 | 1012.9 |
| 20260905205856 | 78 | 155 | 0.0 | 0.0 | 0.00 | 0.34 | 0.34 | 93 | 1013.0 |
| 20260905205351 | 78 | 146 | 0.0 | 1.0 | 0.00 | 0.34 | 0.34 | 94 | 1012.7 |
| 20260905204850 | 78 | 66 | 5.0 | 7.0 | 0.00 | 0.34 | 0.34 | 93 | 1012.7 |
| 20260905204346 | 78 | 80 | 1.0 | 3.0 | 0.00 | 0.34 | 0.34 | 93 | 1012.8 |
| 20260905203844 | 78 | 35 | 3.0 | 3.0 | 0.00 | 0.34 | 0.34 | 93 | 1012.8 |
| 20260905203341 | 77 | 3 | 2.0 | 3.0 | 0.00 | 0.34 | 0.34 | 93 | 1012.9 |
| 20260905202836 | 77 | 320 | 3.0 | 4.0 | 0.00 | 0.34 | 0.34 | 95 | 1012.9 |
| 20260905202331 | 77 | 160 | 0.0 | 1.0 | 0.00 | 0.34 | 0.34 | 95 | 1013.1 |
| 20260905201827 | 76 | 265 | 3.0 | 3.0 | 0.00 | 0.34 | 0.34 | 95 | 1013.1 |
| 20260905201323 | 77 | 217 | 1.0 | 3.0 | 0.00 | 0.34 | 0.34 | 95 | 1013.1 |
| 20260905200822 | 77 | 191 | 1.0 | 1.0 | 0.00 | 0.34 | 0.34 | 95 | 1013.1 |
| 20260905200318 | 76 | 161 | 0.0 | 0.0 | 0.00 | 0.34 | 0.34 | 96 | 1012.9 |
| 20260905195816 | 76 | 146 | 0.0 | 1.0 | 0.00 | 0.34 | 0.34 | 96 | 1012.8 |
| 20260905195311 | 75 | 160 | 3.0 | 4.0 | 0.00 | 0.34 | 0.34 | 95 | 1012.7 |
| 20260905194808 | 75 | 158 | 3.0 | 3.0 | 0.00 | 0.34 | 0.34 | 94 | 1012.7 |
| 20260905194307 | 75 | 178 | 1.0 | 4.0 | 0.07 | 0.34 | 0.34 | 93 | 1012.4 |
| 20260905193806 | 75 | 176 | 0.0 | 1.0 | 0.38 | 0.34 | 0.34 | 92 | 1012.3 |
| 20260905193301 | 75 | 169 | 4.0 | 5.0 | 1.87 | 0.33 | 0.33 | 90 | 1012.6 |
| 20260905192756 | 75 | 222 | 3.0 | 4.0 | 1.75 | 0.29 | 0.29 | 87 | 1012.7 |
| 20260905192252 | 77 | 240 | 4.0 | 4.0 | 0.19 | 0.03 | 0.03 | 86 | 1013.6 |
| 20260905191751 | 79 | 222 | 3.0 | 5.0 | 0.00 | 0.00 | 0.00 | 80 | 1013.7 |
| 20260905191250 | 81 | 324 | 8.0 | 11.0 | 0.00 | 0.00 | 0.00 | 73 | 1013.6 |
| 20260905190749 | 83 | 330 | 5.0 | 7.0 | 0.00 | 0.00 | 0.00 | 68 | 1014.1 |
| 20260905190248 | 89 | 339 | 12.0 | 14.0 | 0.00 | 0.00 | 0.00 | 65 | 1013.6 |
| 20260905185747 | 90 | 115 | 1.0 | 1.0 | 0.00 | 0.00 | 0.00 | 68 | 1012.8 |
| 20260905185242 | 91 | 25 | 1.0 | 1.0 | 0.00 | 0.00 | 0.00 | 67 | 1012.9 |
| 20260905184736 | 91 | 355 | 3.0 | 4.0 | 0.00 | 0.00 | 0.00 | 64 | 1013.0 |
| 20260905184236 | 91 | 343 | 4.0 | 5.0 | 0.00 | 0.00 | 0.00 | 62 | 1012.8 |
| 20260905183735 | 92 | 325 | 2.0 | 3.0 | 0.00 | 0.00 | 0.00 | 62 | 1012.7 |
| 20260905183231 | 92 | 311 | 1.0 | 1.0 | 0.00 | 0.00 | 0.00 | 62 | 1012.6 |
| 20260905182730 | 93 | 12 | 1.0 | 1.0 | 0.00 | 0.00 | 0.00 | 62 | 1012.8 |
| 20260905182230 | 93 | 205 | 1.0 | 1.0 | 0.00 | 0.00 | 0.00 | 61 | 1012.8 |
| 20260905181725 | 94 | 90 | 2.0 | 3.0 | 0.00 | 0.00 | 0.00 | 60 | 1012.5 |
| 20260905181224 | 94 | 103 | 3.0 | 4.0 | 0.00 | 0.00 | 0.00 | 58 | 1012.8 |
| 20260905180719 | 95 | 226 | 3.0 | 4.0 | 0.00 | 0.00 | 0.00 | 59 | 1012.8 |
| 20260905180215 | 95 | 149 | 1.0 | 1.0 | 0.00 | 0.00 | 0.00 | 61 | 1013.0 |
| 20260905175714 | 94 | 273 | 3.0 | 3.0 | 0.00 | 0.00 | 0.00 | 60 | 1013.0 |
| 20260905175209 | 94 | 275 | 3.0 | 3.0 | 0.00 | 0.00 | 0.00 | 60 | 1012.9 |
| 20260905174704 | 94 | 165 | 0.0 | 1.0 | 0.00 | 0.00 | 0.00 | 60 | 1013.2 |
| 20260905174200 | 94 | 67 | 7.0 | 8.0 | 0.00 | 0.00 | 0.00 | 59 | 1013.3 |
| 20260905173656 | 94 | 45 | 5.0 | 8.0 | 0.00 | 0.00 | 0.00 | 60 | 1013.5 |
| 20260905173151 | 95 | 94 | 2.0 | 3.0 | 0.00 | 0.00 | 0.00 | 62 | 1013.4 |
| 20260905172651 | 95 | 213 | 3.0 | 3.0 | 0.00 | 0.00 | 0.00 | 59 | 1013.4 |
| 20260905172145 | 95 | 152 | 1.0 | 1.0 | 0.00 | 0.00 | 0.00 | 59 | 1013.7 |
| 20260905171641 | 95 | 5 | 4.0 | 4.0 | 0.00 | 0.00 | 0.00 | 58 | 1013.5 |
| 20260905171137 | 95 | 198 | 3.0 | 4.0 | 0.00 | 0.00 | 0.00 | 60 | 1013.6 |
| 20260905170634 | 94 | 202 | 3.0 | 4.0 | 0.00 | 0.00 | 0.00 | 64 | 1013.6 |
| 20260905170129 | 94 | 231 | 10.0 | 12.0 | 0.00 | 0.00 | 0.00 | 60 | 1013.8 |
| 20260905165629 | 93 | 176 | 1.0 | 1.0 | 0.00 | 0.00 | 0.00 | 63 | 1014.0 |
| 20260905165124 | 93 | 128 | 2.0 | 3.0 | 0.00 | 0.00 | 0.00 | 63 | 1014.0 |
| 20260905164619 | 93 | 171 | 3.0 | 3.0 | 0.00 | 0.00 | 0.00 | 63 | 1014.0 |
| 20260905164118 | 94 | 97 | 5.0 | 5.0 | 0.00 | 0.00 | 0.00 | 65 | 1014.2 |
| 20260905163615 | 94 | 55 | 7.0 | 8.0 | 0.00 | 0.00 | 0.00 | 63 | 1014.3 |
| 20260905163111 | 94 | 150 | 3.0 | 4.0 | 0.00 | 0.00 | 0.00 | 62 | 1014.2 |
| 20260905162607 | 93 | 148 | 2.0 | 3.0 | 0.00 | 0.00 | 0.00 | 63 | 1014.4 |
| 20260905162106 | 93 | 291 | 4.0 | 4.0 | 0.00 | 0.00 | 0.00 | 63 | 1014.5 |
| 20260905161606 | 93 | 79 | 2.0 | 3.0 | 0.00 | 0.00 | 0.00 | 62 | 1014.5 |
| 20260905161104 | 93 | 69 | 1.0 | 1.0 | 0.00 | 0.00 | 0.00 | 63 | 1014.3 |
| 20260905160603 | 93 | 149 | 2.0 | 3.0 | 0.00 | 0.00 | 0.00 | 65 | 1014.6 |
| 20260905155557 | 92 | 312 | 3.0 | 4.0 | 0.00 | 0.00 | 0.00 | 65 | 1014.5 |
| 20260905155056 | 92 | 51 | 2.0 | 3.0 | 0.00 | 0.00 | 0.00 | 66 | 1014.5 |
| 20260905154551 | 91 | 129 | 0.0 | 1.0 | 0.00 | 0.00 | 0.00 | 67 | 1014.7 |
| 20260905154046 | 92 | 76 | 2.0 | 3.0 | 0.00 | 0.00 | 0.00 | 66 | 1014.7 |
| 20260905153542 | 92 | 199 | 1.0 | 1.0 | 0.00 | 0.00 | 0.00 | 66 | 1014.5 |
| 20260905153042 | 92 | 193 | 0.0 | 0.0 | 0.00 | 0.00 | 0.00 | 69 | 1014.6 |
| 20260905152537 | 91 | 346 | 1.0 | 1.0 | 0.00 | 0.00 | 0.00 | 68 | 1014.8 |
| 20260905152032 | 92 | 180 | 1.0 | 1.0 | 0.00 | 0.00 | 0.00 | 68 | 1014.4 |
| 20260905151528 | 90 | 192 | 0.0 | 0.0 | 0.00 | 0.00 | 0.00 | 69 | 1014.7 |
| 20260905151023 | 90 | 205 | 2.0 | 3.0 | 0.00 | 0.00 | 0.00 | 70 | 1014.6 |
| 20260905150518 | 90 | 211 | 2.0 | 3.0 | 0.00 | 0.00 | 0.00 | 70 | 1014.7 |
| 20260905150016 | 90 | 200 | 1.0 | 1.0 | 0.00 | 0.00 | 0.00 | 70 | 1014.8 |
| 20260905145515 | 90 | 178 | 0.0 | 1.0 | 0.00 | 0.00 | 0.00 | 69 | 1014.8 |
| 20260905145015 | 91 | 175 | 0.0 | 1.0 | 0.00 | 0.00 | 0.00 | 70 | 1014.7 |
| 20260905144510 | 91 | 188 | 1.0 | 1.0 | 0.00 | 0.00 | 0.00 | 69 | 1014.5 |
| 20260905144009 | 89 | 177 | 1.0 | 1.0 | 0.00 | 0.00 | 0.00 | 73 | 1014.8 |
| 20260905143508 | 89 | 199 | 1.0 | 1.0 | 0.00 | 0.00 | 0.00 | 73 | 1014.8 |
| 20260905143003 | 88 | 212 | 3.0 | 3.0 | 0.00 | 0.00 | 0.00 | 74 | 1014.8 |
| 20260905142501 | 87 | 188 | 1.0 | 1.0 | 0.00 | 0.00 | 0.00 | 76 | 1014.9 |
| 20260905141957 | 86 | 220 | 2.0 | 3.0 | 0.00 | 0.00 | 0.00 | 77 | 1014.8 |
| 20260905141451 | 86 | 194 | 1.0 | 1.0 | 0.00 | 0.00 | 0.00 | 78 | 1015.0 |
| 20260905140948 | 86 | 230 | 5.0 | 8.0 | 0.00 | 0.00 | 0.00 | 79 | 1015.0 |
| 20260905140443 | 86 | 234 | 3.0 | 3.0 | 0.00 | 0.00 | 0.00 | 78 | 1015.0 |
| 20260905135941 | 86 | 190 | 0.0 | 1.0 | 0.00 | 0.00 | 0.00 | 79 | 1014.9 |
| 20260905135438 | 85 | 206 | 1.0 | 1.0 | 0.00 | 0.00 | 0.00 | 80 | 1015.1 |
| 20260905134933 | 85 | 237 | 3.0 | 4.0 | 0.00 | 0.00 | 0.00 | 80 | 1015.1 |
| 20260905134432 | 84 | 210 | 2.0 | 3.0 | 0.00 | 0.00 | 0.00 | 80 | 1015.1 |
| 20260905133931 | 84 | 219 | 3.0 | 4.0 | 0.00 | 0.00 | 0.00 | 81 | 1015.3 |
| 20260905133426 | 84 | 196 | 1.0 | 1.0 | 0.00 | 0.00 | 0.00 | 82 | 1015.3 |
| 20260905132926 | 84 | 197 | 0.0 | 1.0 | 0.00 | 0.00 | 0.00 | 82 | 1015.3 |
| 20260905132421 | 83 | 199 | 0.0 | 1.0 | 0.00 | 0.00 | 0.00 | 83 | 1015.2 |
| 20260905131916 | 82 | 194 | 0.0 | 0.0 | 0.00 | 0.00 | 0.00 | 83 | 1015.1 |
| 20260905131412 | 82 | 199 | 2.0 | 3.0 | 0.00 | 0.00 | 0.00 | 84 | 1015.1 |
| 20260905130906 | 81 | 195 | 0.0 | 0.0 | 0.00 | 0.00 | 0.00 | 84 | 1015.3 |
| 20260905130406 | 81 | 206 | 1.0 | 1.0 | 0.00 | 0.00 | 0.00 | 84 | 1015.3 |
| 20260905125900 | 81 | 196 | 1.0 | 1.0 | 0.00 | 0.00 | 0.00 | 85 | 1015.2 |
| 20260905125355 | 81 | 201 | 2.0 | 3.0 | 0.00 | 0.00 | 0.00 | 84 | 1015.4 |
| 20260905124851 | 80 | 197 | 0.0 | 0.0 | 0.00 | 0.00 | 0.00 | 85 | 1015.0 |
| 20260905124348 | 80 | 189 | 1.0 | 1.0 | 0.00 | 0.00 | 0.00 | 86 | 1015.1 |
| 20260905123847 | 80 | 188 | 1.0 | 1.0 | 0.00 | 0.00 | 0.00 | 86 | 1014.9 |
| 20260905123344 | 79 | 193 | 0.0 | 0.0 | 0.00 | 0.00 | 0.00 | 89 | 1014.9 |
| 20260905122844 | 78 | 187 | 1.0 | 1.0 | 0.00 | 0.00 | 0.00 | 89 | 1014.9 |
| 20260905122343 | 78 | 200 | 1.0 | 1.0 | 0.00 | 0.00 | 0.00 | 90 | 1015.0 |
| 20260905121839 | 77 | 183 | 0.0 | 0.0 | 0.00 | 0.00 | 0.00 | 91 | 1015.2 |
| 20260905121335 | 77 | 202 | 2.0 | 3.0 | 0.00 | 0.00 | 0.00 | 92 | 1015.1 |
| 20260905120833 | 76 | 192 | 1.0 | 1.0 | 0.00 | 0.00 | 0.00 | 93 | 1015.0 |
| 20260905120329 | 76 | 190 | 1.0 | 1.0 | 0.00 | 0.00 | 0.00 | 94 | 1015.0 |
| 20260905115824 | 75 | 187 | 1.0 | 1.0 | 0.00 | 0.00 | 0.00 | 94 | 1014.9 |
| 20260905115323 | 75 | 183 | 0.0 | 0.0 | 0.00 | 0.00 | 0.00 | 95 | 1014.7 |
| 20260905114823 | 75 | 199 | 2.0 | 3.0 | 0.00 | 0.00 | 0.00 | 95 | 1014.8 |
| 20260905114322 | 74 | 202 | 1.0 | 1.0 | 0.00 | 0.00 | 0.00 | 96 | 1014.8 |
| 20260905113822 | 74 | 181 | 0.0 | 0.0 | 0.00 | 0.00 | 0.00 | 96 | 1014.9 |
| 20260905113317 | 74 | 165 | 0.0 | 0.0 | 0.00 | 0.00 | 0.00 | 96 | 1014.5 |
| 20260905112813 | 74 | 165 | 0.0 | 0.0 | 0.00 | 0.00 | 0.00 | 96 | 1014.5 |
| 20260905112308 | 74 | 190 | 1.0 | 1.0 | 0.00 | 0.00 | 0.00 | 96 | 1014.6 |
| 20260905111803 | 74 | 155 | 1.0 | 1.0 | 0.00 | 0.00 | 0.00 | 96 | 1014.5 |
| 20260905111257 | 74 | 162 | 0.0 | 0.0 | 0.00 | 0.00 | 0.00 | 95 | 1014.4 |
| 20260905110756 | 74 | 163 | 1.0 | 1.0 | 0.00 | 0.00 | 0.00 | 95 | 1014.1 |
| 20260905110250 | 74 | 259 | 3.0 | 4.0 | 0.00 | 0.00 | 0.00 | 96 | 1014.3 |
| 20260905105746 | 74 | 187 | 0.0 | 1.0 | 0.00 | 0.00 | 0.00 | 96 | 1014.2 |
| 20260905105245 | 74 | 183 | 0.0 | 0.0 | 0.00 | 0.00 | 0.00 | 97 | 1013.9 |
| 20260905104740 | 74 | 139 | 0.0 | 0.0 | 0.00 | 0.00 | 0.00 | 96 | 1014.1 |
| 20260905104236 | 74 | 184 | 0.0 | 0.0 | 0.00 | 0.00 | 0.00 | 96 | 1014.0 |
| 20260905103736 | 74 | 184 | 0.0 | 0.0 | 0.00 | 0.00 | 0.00 | 96 | 1014.0 |
| 20260905103232 | 74 | 184 | 0.0 | 0.0 | 0.00 | 0.00 | 0.00 | 96 | 1013.9 |
| 20260905102727 | 74 | 184 | 0.0 | 0.0 | 0.00 | 0.00 | 0.00 | 95 | 1013.8 |
| 20260905102224 | 74 | 184 | 0.0 | 0.0 | 0.00 | 0.00 | 0.00 | 95 | 1014.0 |
| 20260905101723 | 74 | 112 | 0.0 | 1.0 | 0.00 | 0.00 | 0.00 | 95 | 1013.9 |
| 20260905101221 | 74 | 184 | 0.0 | 0.0 | 0.00 | 0.00 | 0.00 | 95 | 1013.7 |
| 20260905100717 | 74 | 184 | 0.0 | 1.0 | 0.00 | 0.00 | 0.00 | 94 | 1014.0 |
| 20260905100212 | 74 | 184 | 0.0 | 0.0 | 0.00 | 0.00 | 0.00 | 94 | 1013.6 |
| 20260905095711 | 75 | 177 | 1.0 | 1.0 | 0.00 | 0.00 | 0.00 | 94 | 1013.9 |
| 20260905095207 | 75 | 183 | 0.0 | 0.0 | 0.00 | 0.00 | 0.00 | 94 | 1013.6 |
| 20260905094707 | 75 | 185 | 0.0 | 1.0 | 0.00 | 0.00 | 0.00 | 93 | 1013.7 |
| 20260905094206 | 75 | 181 | 0.0 | 0.0 | 0.00 | 0.00 | 0.00 | 93 | 1013.8 |
| 20260905093701 | 75 | 181 | 1.0 | 1.0 | 0.00 | 0.00 | 0.00 | 93 | 1013.7 |
| 20260905093157 | 75 | 176 | 0.0 | 0.0 | 0.00 | 0.00 | 0.00 | 92 | 1013.9 |
| 20260905092652 | 75 | 157 | 0.0 | 1.0 | 0.00 | 0.00 | 0.00 | 92 | 1013.7 |
| 20260905092148 | 76 | 161 | 0.0 | 1.0 | 0.00 | 0.00 | 0.00 | 91 | 1013.7 |
| 20260905091647 | 76 | 204 | 1.0 | 1.0 | 0.00 | 0.00 | 0.00 | 91 | 1013.6 |
| 20260905091147 | 76 | 212 | 1.0 | 1.0 | 0.00 | 0.00 | 0.00 | 91 | 1013.6 |
| 20260905090642 | 75 | 198 | 2.0 | 3.0 | 0.00 | 0.00 | 0.00 | 92 | 1013.7 |
| 20260905090138 | 75 | 190 | 2.0 | 3.0 | 0.00 | 0.00 | 0.00 | 94 | 1013.7 |
| 20260905085636 | 75 | 190 | 0.0 | 0.0 | 0.00 | 0.00 | 0.00 | 95 | 1013.8 |
| 20260905085132 | 75 | 174 | 0.0 | 0.0 | 0.00 | 0.00 | 0.00 | 95 | 1013.8 |
| 20260905084631 | 75 | 174 | 0.0 | 0.0 | 0.00 | 0.00 | 0.00 | 95 | 1013.9 |
| 20260905084126 | 75 | 173 | 0.0 | 0.0 | 0.00 | 0.00 | 0.00 | 95 | 1013.9 |
| 20260905083621 | 75 | 165 | 0.0 | 0.0 | 0.00 | 0.00 | 0.00 | 94 | 1014.0 |
| 20260905083118 | 75 | 165 | 0.0 | 0.0 | 0.00 | 0.00 | 0.00 | 94 | 1014.1 |
| 20260905082618 | 75 | 165 | 0.0 | 0.0 | 0.00 | 0.00 | 0.00 | 93 | 1014.2 |
| 20260905082113 | 75 | 165 | 0.0 | 0.0 | 0.00 | 0.00 | 0.00 | 93 | 1014.0 |
| 20260905081608 | 75 | 165 | 0.0 | 0.0 | 0.00 | 0.00 | 0.00 | 93 | 1013.9 |
| 20260905081103 | 75 | 162 | 0.0 | 0.0 | 0.00 | 0.00 | 0.00 | 93 | 1014.1 |
| 20260905080602 | 75 | 158 | 0.0 | 0.0 | 0.00 | 0.00 | 0.00 | 93 | 1014.1 |
| 20260905080057 | 75 | 170 | 0.0 | 0.0 | 0.00 | 0.00 | 0.00 | 93 | 1014.3 |
| 20260905075556 | 76 | 171 | 0.0 | 0.0 | 0.00 | 0.00 | 0.00 | 93 | 1014.4 |
| 20260905075056 | 76 | 171 | 0.0 | 0.0 | 0.00 | 0.00 | 0.00 | 93 | 1014.5 |
| 20260905074555 | 76 | 171 | 0.0 | 0.0 | 0.00 | 0.00 | 0.00 | 92 | 1014.4 |
| 20260905074051 | 76 | 171 | 0.0 | 0.0 | 0.00 | 0.00 | 0.00 | 92 | 1014.5 |
| 20260905073542 | 76 | 169 | 0.0 | 0.0 | 0.00 | 0.00 | 0.00 | 92 | 1014.6 |
| 20260905073037 | 76 | 170 | 0.0 | 0.0 | 0.00 | 0.00 | 0.00 | 92 | 1014.4 |
| 20260905072536 | 76 | 170 | 0.0 | 0.0 | 0.00 | 0.00 | 0.00 | 92 | 1014.4 |
| 20260905072032 | 76 | 169 | 0.0 | 0.0 | 0.00 | 0.00 | 0.00 | 92 | 1014.5 |
| 20260905071529 | 76 | 169 | 0.0 | 0.0 | 0.00 | 0.00 | 0.00 | 91 | 1014.8 |
| 20260905071029 | 76 | 169 | 0.0 | 0.0 | 0.00 | 0.00 | 0.00 | 91 | 1014.9 |
| 20260905070524 | 76 | 170 | 0.0 | 0.0 | 0.00 | 0.00 | 0.00 | 91 | 1014.6 |
| 20260905070020 | 77 | 169 | 0.0 | 0.0 | 0.00 | 0.00 | 0.00 | 91 | 1014.9 |
| 20260905065517 | 77 | 169 | 0.0 | 0.0 | 0.00 | 0.00 | 0.00 | 91 | 1014.9 |
| 20260905065013 | 77 | 170 | 0.0 | 0.0 | 0.00 | 0.00 | 0.00 | 90 | 1014.7 |
| 20260905064513 | 77 | 170 | 0.0 | 0.0 | 0.00 | 0.00 | 0.00 | 90 | 1014.7 |
| 20260905064008 | 77 | 153 | 0.0 | 0.0 | 0.00 | 0.00 | 0.00 | 90 | 1015.0 |
| 20260905063502 | 77 | 153 | 0.0 | 0.0 | 0.00 | 0.00 | 0.00 | 90 | 1014.9 |
| 20260905062959 | 77 | 153 | 0.0 | 0.0 | 0.00 | 0.00 | 0.00 | 89 | 1014.7 |
| 20260905062458 | 77 | 174 | 0.0 | 0.0 | 0.00 | 0.00 | 0.00 | 89 | 1014.9 |
| 20260905061954 | 77 | 174 | 0.0 | 0.0 | 0.00 | 0.00 | 0.00 | 88 | 1014.8 |
| 20260905061454 | 77 | 174 | 0.0 | 0.0 | 0.00 | 0.00 | 0.00 | 88 | 1015.0 |
| 20260905060953 | 77 | 174 | 0.0 | 0.0 | 0.00 | 0.00 | 0.00 | 87 | 1014.9 |
| 20260905060449 | 78 | 174 | 0.0 | 0.0 | 0.00 | 0.00 | 0.00 | 87 | 1015.2 |
| 20260905055949 | 78 | 174 | 0.0 | 0.0 | 0.00 | 0.00 | 0.00 | 86 | 1015.1 |
| 20260905055449 | 78 | 175 | 0.0 | 0.0 | 0.00 | 0.00 | 0.00 | 86 | 1015.1 |
| 20260905054949 | 78 | 172 | 0.0 | 0.0 | 0.00 | 0.00 | 0.00 | 86 | 1015.2 |
| 20260905054444 | 78 | 177 | 0.0 | 0.0 | 0.00 | 0.00 | 0.00 | 86 | 1015.2 |
| 20260905053944 | 78 | 167 | 0.0 | 0.0 | 0.00 | 0.00 | 0.00 | 86 | 1015.2 |
| 20260905053439 | 78 | 160 | 0.0 | 0.0 | 0.00 | 0.00 | 0.00 | 85 | 1015.2 |
| 20260905052936 | 79 | 159 | 0.0 | 0.0 | 0.00 | 0.00 | 0.00 | 85 | 1015.1 |
| 20260905052434 | 79 | 153 | 0.0 | 0.0 | 0.00 | 0.00 | 0.00 | 84 | 1015.2 |
| 20260905051934 | 80 | 173 | 0.0 | 0.0 | 0.00 | 0.00 | 0.00 | 84 | 1015.2 |
| 20260905051430 | 80 | 173 | 0.0 | 0.0 | 0.00 | 0.00 | 0.00 | 82 | 1015.4 |
| 20260905050927 | 80 | 172 | 0.0 | 0.0 | 0.00 | 0.00 | 0.00 | 81 | 1015.2 |
| 20260905050423 | 81 | 171 | 0.0 | 0.0 | 0.00 | 0.00 | 0.00 | 80 | 1015.5 |
| 20260905045919 | 81 | 192 | 0.0 | 0.0 | 0.00 | 0.00 | 0.00 | 79 | 1015.2 |
| 20260905045414 | 82 | 192 | 0.0 | 0.0 | 0.00 | 0.00 | 0.00 | 78 | 1015.1 |
| 20260905044909 | 82 | 196 | 0.0 | 1.0 | 0.00 | 0.00 | 0.00 | 77 | 1015.3 |
| 20260905044404 | 82 | 199 | 2.0 | 3.0 | 0.00 | 0.00 | 0.00 | 78 | 1015.2 |
| 20260905043902 | 82 | 194 | 1.0 | 1.0 | 0.00 | 0.00 | 0.00 | 78 | 1015.3 |
| 20260905043357 | 82 | 193 | 1.0 | 1.0 | 0.00 | 0.00 | 0.00 | 78 | 1015.1 |
| 20260905042857 | 82 | 192 | 1.0 | 1.0 | 0.00 | 0.00 | 0.00 | 78 | 1015.2 |
| 20260905042352 | 81 | 202 | 1.0 | 3.0 | 0.00 | 0.00 | 0.00 | 80 | 1015.2 |
| 20260905041847 | 81 | 190 | 1.0 | 1.0 | 0.00 | 0.00 | 0.00 | 80 | 1015.2 |
| 20260905041344 | 82 | 189 | 0.0 | 0.0 | 0.00 | 0.00 | 0.00 | 79 | 1015.2 |
| 20260905040843 | 82 | 189 | 0.0 | 1.0 | 0.00 | 0.00 | 0.00 | 79 | 1015.3 |
| 20260905040343 | 82 | 188 | 0.0 | 1.0 | 0.00 | 0.00 | 0.00 | 80 | 1015.1 |